Location: El Manguito
(10.2358°N, 67.3634°W)
Time: 16:25:44
(UTC+00:00)

GEOS 3 Rocket - Pass Details

Date: 01 April 2023
Orbit: 770 x 848 km, 115.0° (Epoch: 01 June)

Event Time Altitude Azimuth Distance (km) Brightness Sun altitude
Rises 23:14:32 0° 24° (NNE) 3,397 6.7 -9.3°
Reaches altitude 10° 23:16:52 10° 22° (NNE) 2,459 6.0 -9.8°
Maximum altitude 23:22:12 69° 300° (WNW) 895 4.1 -11.1°
Drops below altitude 10° 23:27:28 10° 217° (SW) 2,429 6.5 -12.4°
Sets 23:29:46 0° 214° (SW) 3,352 7.2 -13.0°
